Location: *
(58.4167°N, 22.5000°E)
Time: 01:32:56
(UTC+00:00)

SJ 16-02 - Pass Details

Date: 22 September 2019
Orbit: 606 x 617 km, 75.0° (Epoch: 13 October)

Event Time Altitude Azimuth Distance (km) Brightness Sun altitude
Rises 22:31:53 0° 331° (NNW) 2,903 5.6 -31.4°
Reaches altitude 10° 22:34:10 10° 335° (NNW) 1,992 4.6 -31.4°
Enters shadow 22:36:32 30° 345° (NNW) 1,108 3.1 -31.4°
